SCP
0 0 0 0 0 0 0 -0 0 0 0 0 0 0 0 0 0 0 0 0 0 0 0 0 0 0 0 0 0 0 0 0 0 0 0 0 0 0 0 0 0 0 0
0 0 0 0 0 0 0 0 0 0 0 0 0 0 0 0 0 0 0 0 0 0 0 0 0 0 0 0 0 0 0 0 0 0 0 0 0 0 0 0 0 0 0
0 0 0 0 0 0 0 0 0 0 0 0 0 0 0 0 0 0 0 0 0 0 0 -0 0 0 0 0 0 0 0 0 0 0 0 0 0 0 0 0 0 0 0
-0 -0 0 0 0 0 0 0 0 0 0 0 0 0 0 0 0 0 0 0 0 0 0 0 0 0 0 0 0 0 0 0 0 0 0 0 0 0 0 0 0 0 0
-0 -0 -0 -0 0 0 0 -0 0 0 0 0 0 0 0 0 0 0 0 0 0 0 0 0 0 0 0 0 0 0 0 0 0 0 0 0 0 0 0 0 0 0 0
-0 -0 -0 -0 0 0 -0 -0 -0 0 0 0 0 0 0 0 0 0 0 0 0 0 0 0 0 0 0 0 0 0 0 0 0 0 0 0 0 0 0 0 0 0 0
-0 -0 -0 -0 -0 -0 0 0 0 0 0 0 0 0 0 0 0 0 0 0 0 0 0 0 0 0 0 0 0 0 0 0 0 0 0 0 0 0 0 0 0 0 0
-0 -0 -0 -0 -0 0 0 0 0 0 0 0 0 0 0 0 0 0 0 0 0 0 0 0 0 0 0 0 0 0 0 0 0 0 0 0 0 0 0 0 0 0 0
-0 -0 -0 -0 0 0 0 0 0 0 0 0 0 0 0 0 0 0 0 0 0 0 0 0 0 0 0 0 0 0 0 0 0 0 0 0 0 0 0 0 0 0 0
-0 -0 -0 -0 0 0 0 0 0 0 0 0 0 0 0 0 0 0 0 0 0 0 0 0 0 0 0 0 0 0 0 0 0 0 0 0 0 0 0 0 0 0 0
-0 0 0 0 0 0 0 0 0 0 0 0 0 0 0 0 0 0 0 0 0 0 0 0 0 0 0 0 0 0 0 0 0 0 0 0 0 0 0 0 0 0 0
0 0 0 0 0 0 0 0 0 0 0 0 0 0 0 0 -0 0 0 0 0 0 -0 -0 -0 0 0 0 0 0 0 0 0 0 0 0 0 0 0 0 0 0 0
0 0 0 0 0 0 0 0 0 0 0 0 0 0 0 -0 0 0 -0 -0 -0 -0 -0 -0 -0 -0 0 0 0 0 0 0 0 0 0 0 0 0 0 0 0 0 0
0 0 0 0 0 0 0 0 0 0 0 0 0 0 0 -0 -0 0 -0 -0 -0 -0 -0 -0 -0 -0 -0 0 0 0 0 0 0 0 0 0 0 0 0 0 0 0 0
0 0 0 0 0 0 0 0 0 0 0 0 0 0 0 0 -0 -0 -0 -0 -0 -0 -0 -0 -0 -0 -0 -0 -0 0 0 0 0 0 0 0 0 0 0 0 0 0 -0
0 0 0 0 0 0 0 0 0 0 0 0 0 0 0 0 0 -0 -0 -0 -0 -0 -0 -0 -0 -0 -0 -0 -0 0 0 0 0 0 0 0 0 0 0 0 0 0 0
0 0 0 0 0 0 0 0 0 0 0 0 0 0 0 0 0 -0 -0 -0 -0 -0 -0 -0 -0 -0 -0 -0 -0 0 0 0 0 0 0 0 0 0 0 0 0 0 0
0 0 0 0 0 0 0 0 0 0 0 0 0 0 0 0 0 -0 -0 -0 -0 -0 -0 -0 -0 0 0 0 0 0 0 0 0 0 0 0 0 0 0 0 0 0 0
0 0 0 0 0 0 0 0 0 0 0 0 0 0 0 0 0 0 0 -0 -0 -0 -0 0 0 0 0 0 0 0 0 0 0 0 0 -0 -0 0 0 0 0 0 0
0 0 0 0 0 0 0 0 0 0 0 0 0 0 0 0 0 -0 -0 -0 -0 0 0 0 0 0 0 0 0 0 0 0 0 0 0 0 0 0 0 0 0 0 0
0 0 0 0 0 0 0 0 0 0 0 0 0 0 0 0 0 0 0 0 0 0 0 0 0 0 0 0 0 0 0 0 0 0 0 0 0 0 0 0 0 0 0
0 0 0 0 0 0 0 0 0 0 0 0 0 0 0 0 0 0 0 0 0 0 0 0 0 0 0 0 0 0 0 0 0 0 -0 -0 0 0 0 0 0 0 0
-0 0 0 0 0 0 0 0 0 0 0 0 0 0 0 0 0 0 0 0 0 0 0 0 0 0 0 0 0 0 0 0 0 0 0 0 0 0 0 0 0 0 0
0 0 0 0 0 0 0 0 0 0 0 0 0 0 0 0 0 0 0 0 0 0 0 0 0 0 0 0 0 0 0 0 0 0 0 0 0 0 0 0 0 0 0
-0 -0 0 0 0 0 0 0 0 0 0 0 0 0 0 0 0 0 0 0 0 0 0 0 0 0 0 0 0 0 0 0 0 0 0 0 0 0 0 0 0 0 0
0 0 0 0 0 -0 0 0 0 0 0 0 0 0 0 0 0 0 0 0 0 0 0 0 0 0 0 0 0 0 0 0 0 0 0 0 0 0 0 0 0 0 0
Wind_Speed_500mb
63 51 43 28 11 10 25 33 42 41 24 23 31 27 30 14 13 28 28 42 71 68 50 59 67 65 59 38 57 50 43 43 36 26 30 29 34 29 33 32 36 34 35
77 63 45 40 21 12 12 18 28 29 24 29 32 28 23 15 15 28 32 46 47 56 65 47 28 52 45 45 44 53 49 42 42 42 36 20 27 31 32 32 38 47 48
79 84 60 36 28 15 12 21 29 29 29 32 32 26 29 21 28 33 39 27 21 57 67 16 38 49 54 54 48 42 44 46 47 38 21 11 15 18 24 33 36 38 40
85 75 65 43 28 22 23 23 28 35 37 30 30 29 33 32 41 37 28 30 30 49 42 36 46 50 57 44 40 41 39 45 42 41 49 41 31 15 13 21 26 34 39
74 73 58 46 27 25 28 37 28 32 33 25 24 27 32 29 28 34 31 35 29 48 50 41 38 40 36 38 33 29 37 34 34 40 37 40 44 47 45 28 24 25 28
75 72 51 44 47 18 25 26 26 29 21 24 28 31 25 34 48 42 37 42 56 63 57 54 52 43 45 42 35 32 31 30 37 36 37 36 30 21 26 30 28 19 19
67 70 61 54 46 30 10 8 7 7 10 14 29 37 36 45 46 47 52 51 53 51 48 56 61 55 42 41 36 31 32 36 36 28 28 31 29 25 20 20 14 7 6
66 62 58 51 44 35 22 13 6 3 13 19 37 44 45 50 47 48 49 52 42 48 53 53 46 47 51 43 35 41 33 35 21 22 19 25 23 19 14 11 7 5 4
65 62 53 48 43 34 29 21 18 19 30 39 52 46 54 53 49 51 49 48 50 48 40 44 52 53 44 44 51 43 32 31 45 41 35 30 24 21 23 22 19 14 6
62 63 54 48 40 34 30 26 27 33 42 59 69 74 73 71 70 66 66 68 72 69 68 66 62 58 63 63 60 60 51 42 41 40 33 34 34 26 22 21 19 17 17
62 54 47 43 41 33 35 37 40 46 51 71 87 87 84 82 85 87 90 90 88 85 85 82 79 73 66 60 59 58 52 47 48 45 39 38 32 28 27 26 24 23 24
50 48 49 43 42 42 48 52 57 57 62 81 94 101 101 99 102 102 99 93 92 89 87 79 74 71 68 65 64 64 60 53 49 45 38 37 33 30 30 30 31 34 37
49 53 49 51 49 52 60 60 63 60 74 94 118 115 112 110 109 104 100 98 91 88 82 80 81 78 72 67 63 61 57 51 48 44 40 39 37 38 39 39 41 43 46
54 59 54 54 56 57 63 66 59 65 79 108 120 119 112 109 105 104 97 93 90 88 84 81 77 74 68 67 61 57 52 49 49 46 45 44 44 45 46 49 52 54 57
59 58 56 53 59 60 60 55 58 67 93 114 113 115 110 107 103 99 96 91 86 82 77 75 74 71 67 61 56 52 49 49 48 46 46 47 49 51 53 54 54 56 58
49 50 50 53 61 48 41 50 70 84 99 109 109 103 100 95 90 88 86 81 78 74 68 69 66 64 62 54 50 46 46 45 46 47 48 47 49 52 56 56 56 58 58
45 50 53 49 41 45 53 68 81 88 93 96 92 87 85 83 80 78 74 71 69 63 62 63 59 59 56 47 46 42 44 46 49 50 50 51 51 50 53 52 54 55 55
48 47 41 39 44 54 67 74 78 82 82 83 81 76 73 74 72 69 68 65 61 59 57 55 53 50 49 42 43 44 46 46 47 48 49 51 53 55 59 61 64 66 66
39 35 36 44 52 60 64 69 73 73 73 74 70 66 64 64 61 60 58 55 50 50 49 48 44 44 44 40 35 36 40 43 45 48 53 57 59 59 67 65 65 65 65
37 35 37 41 47 54 60 62 67 65 67 62 60 56 54 52 52 51 48 45 43 41 37 36 41 41 38 29 30 36 40 46 53 54 57 59 63 64 58 63 66 71 67
34 33 35 41 44 44 47 53 54 58 55 51 49 48 46 45 44 42 38 35 35 34 31 29 30 32 30 31 37 40 42 48 53 59 64 64 63 62 65 67 64 59 59
31 29 31 36 38 36 36 47 48 49 44 41 39 39 38 38 35 30 30 29 28 28 28 28 25 24 29 35 35 37 49 55 59 61 64 67 68 68 66 64 62 60 63
33 31 29 32 34 33 31 38 43 38 34 31 32 30 29 29 28 24 25 22 21 22 20 20 23 23 24 26 35 45 51 57 60 64 65 64 65 65 62 59 60 63 64
31 29 30 31 34 33 32 32 35 30 24 22 24 24 19 18 17 17 19 18 19 22 21 21 25 26 29 37 44 50 53 54 59 60 61 62 59 57 57 56 53 53 59
37 35 32 33 33 33 30 29 27 24 16 14 16 15 15 14 14 15 17 19 19 19 22 24 28 31 35 39 43 47 51 56 61 63 64 65 67 68 64 59 56 59 62
41 39 36 33 31 30 26 24 22 21 14 11 12 11 11 11 12 12 13 14 18 24 28 32 36 37 40 43 47 51 54 57 63 66 70 70 68 64 63 62 62 62 66
Wind_Direction_500mb
333 320 298 294 324 283 274 273 279 261 260 274 281 258 234 229 221 210 216 204 210 213 204 231 216 203 201 209 214 213 218 211 216 211 207 231 247 244 249 257 258 268 265
349 344 320 282 270 297 290 283 272 268 253 272 276 269 239 214 208 194 191 195 222 234 223 216 239 199 201 211 219 224 222 224 223 227 239 230 242 260 272 262 257 256 256
339 344 344 294 264 267 263 273 279 273 266 269 270 261 228 210 181 180 194 198 209 209 179 269 239 221 211 207 218 229 224 227 232 235 207 188 207 229 238 242 247 250 255
352 349 358 338 273 245 245 286 282 263 262 262 247 234 226 212 203 192 171 167 179 198 230 244 199 202 203 204 213 227 231 229 231 236 247 253 245 235 241 254 248 248 250
350 354 7 359 313 286 278 291 289 272 263 254 222 226 223 220 196 165 163 181 189 196 190 195 194 192 193 199 198 220 223 220 227 230 240 242 243 252 252 248 233 252 246
357 7 17 33 39 348 298 291 289 278 281 233 222 216 200 193 172 165 161 177 183 190 192 182 181 188 201 203 197 214 223 231 225 227 231 230 221 233 246 251 241 241 255
0 11 18 26 34 35 40 22 345 301 265 216 210 198 207 186 169 160 174 174 180 184 180 178 184 188 196 190 192 208 208 200 200 198 225 228 229 219 214 209 221 223 269
13 15 21 28 35 27 37 55 74 174 197 189 183 186 174 154 158 158 166 170 183 189 181 188 192 184 190 198 197 217 198 161 181 174 144 122 115 104 105 105 98 113 75
6 12 24 34 41 44 49 66 101 116 139 145 147 159 149 143 144 141 150 154 142 140 154 160 150 139 137 142 139 135 130 129 109 111 108 95 89 78 60 50 44 46 14
7 17 31 40 52 61 69 85 109 116 123 129 131 132 127 125 125 125 122 123 120 119 119 119 119 120 119 119 118 114 108 107 97 87 81 75 78 81 77 62 48 33 17
13 26 37 49 62 72 81 94 105 104 111 119 124 124 120 120 118 116 115 113 114 113 112 110 108 106 104 104 102 99 95 90 92 95 93 87 78 68 58 43 28 13 359
32 42 48 59 71 80 84 94 100 95 98 111 117 113 113 112 110 108 107 109 108 107 106 105 104 101 98 99 99 99 100 97 94 88 83 74 62 50 40 26 15 7 357
44 50 55 62 70 79 89 95 95 94 96 104 109 109 110 109 108 108 108 107 107 104 104 105 102 101 100 98 94 94 91 88 80 73 64 56 42 33 22 13 4 358 351
45 58 64 66 71 84 88 91 87 89 99 107 110 110 110 109 108 108 108 105 105 105 104 100 98 95 91 88 86 82 79 74 67 56 47 38 27 20 14 8 1 355 349
50 58 68 71 84 90 89 88 88 95 103 106 107 106 108 107 107 106 104 105 104 101 100 99 94 90 86 81 77 74 69 62 55 46 35 28 21 13 8 3 357 353 349
61 67 79 87 88 89 88 93 103 107 107 104 103 105 106 106 106 106 104 103 101 100 97 94 91 86 81 77 72 65 59 51 44 37 29 22 13 8 2 2 356 352 346
70 75 81 90 99 101 106 106 105 104 101 101 102 103 103 103 102 101 100 97 96 98 94 90 86 82 77 71 65 55 48 40 34 28 19 12 7 360 353 354 346 343 342
77 83 90 96 101 104 104 105 104 102 101 103 104 105 105 103 101 99 98 98 96 92 88 85 84 83 77 67 57 46 38 31 25 20 12 5 359 358 352 349 345 343 343
94 95 100 106 109 110 110 109 108 108 107 105 104 103 101 101 100 99 96 93 94 92 89 85 80 75 71 61 54 43 35 27 21 14 9 5 1 356 349 341 337 334 333
106 111 113 113 114 114 114 114 109 108 103 104 103 102 103 101 99 95 93 90 87 89 88 84 71 64 59 54 44 34 27 20 17 9 3 357 354 352 344 339 341 338 333
122 117 119 120 115 116 117 111 109 104 102 104 106 109 106 100 97 95 93 91 87 84 81 78 72 60 47 36 30 21 11 13 7 3 359 356 352 345 342 339 336 335 323
134 133 131 124 119 120 122 116 112 108 111 112 111 106 102 99 95 98 98 87 76 69 66 56 51 42 29 23 16 9 9 5 4 359 355 352 347 342 340 336 334 329 327
152 147 145 137 133 130 125 119 111 114 115 115 111 109 104 98 93 83 78 74 67 57 54 42 34 25 15 5 7 7 3 359 357 354 349 343 340 336 333 331 329 328 329
164 162 157 149 142 138 136 129 123 123 124 120 107 100 98 97 96 88 77 65 57 46 38 31 23 12 359 358 358 354 349 347 344 345 340 337 333 330 329 330 331 331 331
174 169 164 162 157 150 148 135 129 122 129 121 115 112 106 96 74 55 43 33 27 21 15 12 5 355 351 351 345 340 338 340 337 339 335 335 337 338 335 335 335 334 333
179 175 171 169 163 155 156 149 144 137 141 135 126 113 90 69 52 40 28 16 13 7 1 358 353 350 345 341 338 335 335 336 334 335 334 335 332 330 329 332 331 331 332
Wind_Speed_850mb
63 51 43 28 11 10 25 33 42 41 24 23 31 27 30 14 13 28 28 42 71 68 50 59 67 65 59 38 57 50 43 43 36 26 30 29 34 29 33 32 36 34 35
77 63 45 40 21 12 12 18 28 29 24 29 32 28 23 15 15 28 32 46 47 56 65 47 28 52 45 45 44 53 49 42 42 42 36 20 27 31 32 32 38 47 48
79 84 60 36 28 15 12 21 29 29 29 32 32 26 29 21 28 33 39 27 21 57 67 16 38 49 54 54 48 42 44 46 47 38 21 11 15 18 24 33 36 38 40
85 75 65 43 28 22 23 23 28 35 37 30 30 29 33 32 41 37 28 30 30 49 42 36 46 50 57 44 40 41 39 45 42 41 49 41 31 15 13 21 26 34 39
74 73 58 46 27 25 28 37 28 32 33 25 24 27 32 29 28 34 31 35 29 48 50 41 38 40 36 38 33 29 37 34 34 40 37 40 44 47 45 28 24 25 28
75 72 51 44 47 18 25 26 26 29 21 24 28 31 25 34 48 42 37 42 56 63 57 54 52 43 45 42 35 32 31 30 37 36 37 36 30 21 26 30 28 19 19
67 70 61 54 46 30 10 8 7 7 10 14 29 37 36 45 46 47 52 51 53 51 48 56 61 55 42 41 36 31 32 36 36 28 28 31 29 25 20 20 14 7 6
66 62 58 51 44 35 22 13 6 3 13 19 37 44 45 50 47 48 49 52 42 48 53 53 46 47 51 43 35 41 33 35 21 22 19 25 23 19 14 11 7 5 4
65 62 53 48 43 34 29 21 18 19 30 39 52 46 54 53 49 51 49 48 50 48 40 44 52 53 44 44 51 43 32 31 45 41 35 30 24 21 23 22 19 14 6
62 63 54 48 40 34 30 26 27 33 42 59 69 74 73 71 70 66 66 68 72 69 68 66 62 58 63 63 60 60 51 42 41 40 33 34 34 26 22 21 19 17 17
62 54 47 43 41 33 35 37 40 46 51 71 87 87 84 82 85 87 90 90 88 85 85 82 79 73 66 60 59 58 52 47 48 45 39 38 32 28 27 26 24 23 24
50 48 49 43 42 42 48 52 57 57 62 81 94 101 101 99 102 102 99 93 92 89 87 79 74 71 68 65 64 64 60 53 49 45 38 37 33 30 30 30 31 34 37
49 53 49 51 49 52 60 60 63 60 74 94 118 115 112 110 109 104 100 98 91 88 82 80 81 78 72 67 63 61 57 51 48 44 40 39 37 38 39 39 41 43 46
54 59 54 54 56 57 63 66 59 65 79 108 120 119 112 109 105 104 97 93 90 88 84 81 77 74 68 67 61 57 52 49 49 46 45 44 44 45 46 49 52 54 57
59 58 56 53 59 60 60 55 58 67 93 114 113 115 110 107 103 99 96 91 86 82 77 75 74 71 67 61 56 52 49 49 48 46 46 47 49 51 53 54 54 56 58
49 50 50 53 61 48 41 50 70 84 99 109 109 103 100 95 90 88 86 81 78 74 68 69 66 64 62 54 50 46 46 45 46 47 48 47 49 52 56 56 56 58 58
45 50 53 49 41 45 53 68 81 88 93 96 92 87 85 83 80 78 74 71 69 63 62 63 59 59 56 47 46 42 44 46 49 50 50 51 51 50 53 52 54 55 55
48 47 41 39 44 54 67 74 78 82 82 83 81 76 73 74 72 69 68 65 61 59 57 55 53 50 49 42 43 44 46 46 47 48 49 51 53 55 59 61 64 66 66
39 35 36 44 52 60 64 69 73 73 73 74 70 66 64 64 61 60 58 55 50 50 49 48 44 44 44 40 35 36 40 43 45 48 53 57 59 59 67 65 65 65 65
37 35 37 41 47 54 60 62 67 65 67 62 60 56 54 52 52 51 48 45 43 41 37 36 41 41 38 29 30 36 40 46 53 54 57 59 63 64 58 63 66 71 67
34 33 35 41 44 44 47 53 54 58 55 51 49 48 46 45 44 42 38 35 35 34 31 29 30 32 30 31 37 40 42 48 53 59 64 64 63 62 65 67 64 59 59
31 29 31 36 38 36 36 47 48 49 44 41 39 39 38 38 35 30 30 29 28 28 28 28 25 24 29 35 35 37 49 55 59 61 64 67 68 68 66 64 62 60 63
33 31 29 32 34 33 31 38 43 38 34 31 32 30 29 29 28 24 25 22 21 22 20 20 23 23 24 26 35 45 51 57 60 64 65 64 65 65 62 59 60 63 64
31 29 30 31 34 33 32 32 35 30 24 22 24 24 19 18 17 17 19 18 19 22 21 21 25 26 29 37 44 50 53 54 59 60 61 62 59 57 57 56 53 53 59
37 35 32 33 33 33 30 29 27 24 16 14 16 15 15 14 14 15 17 19 19 19 22 24 28 31 35 39 43 47 51 56 61 63 64 65 67 68 64 59 56 59 62
41 39 36 33 31 30 26 24 22 21 14 11 12 11 11 11 12 12 13 14 18 24 28 32 36 37 40 43 47 51 54 57 63 66 70 70 68 64 63 62 62 62 66
Wind_Direction_850mb
333 320 298 294 324 283 274 273 279 261 260 274 281 258 234 229 221 210 216 204 210 213 204 231 216 203 201 209 214 213 218 211 216 211 207 231 247 244 249 257 258 268 265
349 344 320 282 270 297 290 283 272 268 253 272 276 269 239 214 208 194 191 195 222 234 223 216 239 199 201 211 219 224 222 224 223 227 239 230 242 260 272 262 257 256 256
339 344 344 294 264 267 263 273 279 273 266 269 270 261 228 210 181 180 194 198 209 209 179 269 239 221 211 207 218 229 224 227 232 235 207 188 207 229 238 242 247 250 255
352 349 358 338 273 245 245 286 282 263 262 262 247 234 226 212 203 192 171 167 179 198 230 244 199 202 203 204 213 227 231 229 231 236 247 253 245 235 241 254 248 248 250
350 354 7 359 313 286 278 291 289 272 263 254 222 226 223 220 196 165 163 181 189 196 190 195 194 192 193 199 198 220 223 220 227 230 240 242 243 252 252 248 233 252 246
357 7 17 33 39 348 298 291 289 278 281 233 222 216 200 193 172 165 161 177 183 190 192 182 181 188 201 203 197 214 223 231 225 227 231 230 221 233 246 251 241 241 255
0 11 18 26 34 35 40 22 345 301 265 216 210 198 207 186 169 160 174 174 180 184 180 178 184 188 196 190 192 208 208 200 200 198 225 228 229 219 214 209 221 223 269
13 15 21 28 35 27 37 55 74 174 197 189 183 186 174 154 158 158 166 170 183 189 181 188 192 184 190 198 197 217 198 161 181 174 144 122 115 104 105 105 98 113 75
6 12 24 34 41 44 49 66 101 116 139 145 147 159 149 143 144 141 150 154 142 140 154 160 150 139 137 142 139 135 130 129 109 111 108 95 89 78 60 50 44 46 14
7 17 31 40 52 61 69 85 109 116 123 129 131 132 127 125 125 125 122 123 120 119 119 119 119 120 119 119 118 114 108 107 97 87 81 75 78 81 77 62 48 33 17
13 26 37 49 62 72 81 94 105 104 111 119 124 124 120 120 118 116 115 113 114 113 112 110 108 106 104 104 102 99 95 90 92 95 93 87 78 68 58 43 28 13 359
32 42 48 59 71 80 84 94 100 95 98 111 117 113 113 112 110 108 107 109 108 107 106 105 104 101 98 99 99 99 100 97 94 88 83 74 62 50 40 26 15 7 357
44 50 55 62 70 79 89 95 95 94 96 104 109 109 110 109 108 108 108 107 107 104 104 105 102 101 100 98 94 94 91 88 80 73 64 56 42 33 22 13 4 358 351
45 58 64 66 71 84 88 91 87 89 99 107 110 110 110 109 108 108 108 105 105 105 104 100 98 95 91 88 86 82 79 74 67 56 47 38 27 20 14 8 1 355 349
50 58 68 71 84 90 89 88 88 95 103 106 107 106 108 107 107 106 104 105 104 101 100 99 94 90 86 81 77 74 69 62 55 46 35 28 21 13 8 3 357 353 349
61 67 79 87 88 89 88 93 103 107 107 104 103 105 106 106 106 106 104 103 101 100 97 94 91 86 81 77 72 65 59 51 44 37 29 22 13 8 2 2 356 352 346
70 75 81 90 99 101 106 106 105 104 101 101 102 103 103 103 102 101 100 97 96 98 94 90 86 82 77 71 65 55 48 40 34 28 19 12 7 360 353 354 346 343 342
77 83 90 96 101 104 104 105 104 102 101 103 104 105 105 103 101 99 98 98 96 92 88 85 84 83 77 67 57 46 38 31 25 20 12 5 359 358 352 349 345 343 343
94 95 100 106 109 110 110 109 108 108 107 105 104 103 101 101 100 99 96 93 94 92 89 85 80 75 71 61 54 43 35 27 21 14 9 5 1 356 349 341 337 334 333
106 111 113 113 114 114 114 114 109 108 103 104 103 102 103 101 99 95 93 90 87 89 88 84 71 64 59 54 44 34 27 20 17 9 3 357 354 352 344 339 341 338 333
122 117 119 120 115 116 117 111 109 104 102 104 106 109 106 100 97 95 93 91 87 84 81 78 72 60 47 36 30 21 11 13 7 3 359 356 352 345 342 339 336 335 323
134 133 131 124 119 120 122 116 112 108 111 112 111 106 102 99 95 98 98 87 76 69 66 56 51 42 29 23 16 9 9 5 4 359 355 352 347 342 340 336 334 329 327
152 147 145 137 133 130 125 119 111 114 115 115 111 109 104 98 93 83 78 74 67 57 54 42 34 25 15 5 7 7 3 359 357 354 349 343 340 336 333 331 329 328 329
164 162 157 149 142 138 136 129 123 123 124 120 107 100 98 97 96 88 77 65 57 46 38 31 23 12 359 358 358 354 349 347 344 345 340 337 333 330 329 330 331 331 331
174 169 164 162 157 150 148 135 129 122 129 121 115 112 106 96 74 55 43 33 27 21 15 12 5 355 351 351 345 340 338 340 337 339 335 335 337 338 335 335 335 334 333
179 175 171 169 163 155 156 149 144 137 141 135 126 113 90 69 52 40 28 16 13 7 1 358 353 350 345 341 338 335 335 336 334 335 334 335 332 330 329 332 331 331 332